CW0060 Weather Reports


time (UTC)temp
C
wind
direction
speed
KPH
gust
KPH
rain 1hr
cm
rain 24hr
cm
rain mn
cm
humidity
%
barometer
mb
20260508200205 11 46 0.0 1.6 0.00 0.00 0.00 76 1017.4
20260508194206 11 46 1.6 4.8 0.00 0.00 0.00 74 1017.3
20260508193705 11 23 1.6 4.8 0.00 0.00 0.00 74 1017.2
20260508193206 11 89 1.6 4.8 0.00 0.00 0.00 73 1017.2
20260508192705 11 41 1.6 3.2 0.00 0.00 0.00 73 1017.1
20260508192206 12 28 0.0 4.8 0.00 0.00 0.00 73 1017.1
20260508191205 12 46 1.6 6.4 0.00 0.00 0.00 72 1017.0
20260508190705 12 46 3.2 6.4 0.00 0.00 0.00 72 1016.6
20260508190205 12 1 3.2 8.0 0.00 0.00 0.00 72 1016.6
20260508185706 12 25 3.2 8.0 0.00 0.00 0.00 72 1016.5
20260508185205 12 53 3.2 8.0 0.00 0.00 0.00 72 1016.5
20260508184705 13 46 3.2 6.4 0.00 0.00 0.00 72 1016.5
20260508184205 13 49 4.8 6.4 0.00 0.00 0.00 72 1016.4
20260508183706 13 39 4.8 8.0 0.00 0.00 0.00 73 1016.3
20260508183205 13 53 4.8 8.0 0.00 0.00 0.00 73 1016.4
20260508182705 13 46 4.8 9.7 0.00 0.00 0.00 74 1016.4
20260508182205 13 60 4.8 9.7 0.00 0.00 0.00 74 1016.2
20260508181705 13 53 6.4 8.0 0.00 0.00 0.00 75 1016.2
20260508181205 13 44 4.8 8.0 0.00 0.00 0.00 75 1016.1
20260508180706 13 41 4.8 8.0 0.00 0.00 0.00 74 1016.1
20260508180205 13 37 4.8 8.0 0.00 0.00 0.00 73 1016.0
20260508175706 13 65 4.8 8.0 0.00 0.00 0.00 73 1016.0
20260508175205 13 39 4.8 8.0 0.00 0.00 0.00 72 1015.9
20260508174706 13 37 4.8 8.0 0.00 0.00 0.00 72 1015.9
20260508173705 14 32 6.4 8.0 0.00 0.00 0.00 71 1015.8
20260508173205 14 53 4.8 8.0 0.00 0.00 0.00 71 1015.8
20260508172705 13 55 4.8 8.0 0.00 0.00 0.00 73 1015.9
20260508171705 12 117 4.8 6.4 0.00 0.00 0.00 80 1015.9
20260508171206 12 32 4.8 6.4 0.00 0.00 0.00 79 1015.9
20260508170205 13 69 4.8 8.0 0.00 0.00 0.00 78 1015.9
20260508165707 13 58 4.8 8.0 0.00 0.00 0.00 76 1015.9
20260508164705 13 51 4.8 8.0 0.00 0.00 0.00 74 1015.9
20260508164205 13 70 4.8 8.0 0.00 0.00 0.00 74 1015.9
20260508163708 13 28 4.8 8.0 0.00 0.00 0.00 73 1015.9
20260508163205 13 13 4.8 6.4 0.00 0.00 0.00 72 1015.9
20260508162705 14 46 3.2 8.0 0.00 0.00 0.00 71 1015.9
20260508162208 14 72 3.2 8.0 0.00 0.00 0.00 71 1015.9
20260508161706 14 108 3.2 8.0 0.00 0.00 0.00 69 1016.0
20260508161205 14 46 4.8 8.0 0.00 0.00 0.00 70 1016.0
20260508160705 15 56 4.8 8.0 0.00 0.00 0.00 66 1016.1
20260508160205 15 37 3.2 8.0 0.00 0.00 0.00 67 1016.1
20260508155705 15 77 3.2 8.0 0.00 0.00 0.00 65 1016.0
20260508155205 15 56 3.2 8.0 0.00 0.00 0.00 69 1016.0
20260508154706 15 46 3.2 8.0 0.00 0.00 0.00 62 1016.1
20260508154206 15 32 4.8 8.0 0.00 0.00 0.00 62 1016.1
20260508153205 16 56 3.2 11.3 0.00 0.00 0.00 62 1016.0
20260508152705 16 178 4.8 11.3 0.00 0.00 0.00 64 1016.1
20260508152206 16 106 4.8 12.9 0.00 0.00 0.00 60 1016.0
20260508151705 17 102 6.4 12.9 0.00 0.00 0.00 58 1015.9
20260508151205 17 141 8.0 12.9 0.00 0.00 0.00 59 1016.1
20260508150705 17 60 6.4 12.9 0.00 0.00 0.00 56 1016.1
20260508145205 17 30 6.4 12.9 0.00 0.00 0.00 56 1016.2
20260508144705 17 99 6.4 14.5 0.00 0.00 0.00 55 1016.2
20260508144206 18 47 6.4 14.5 0.00 0.00 0.00 59 1016.3
20260508143705 18 6 6.4 14.5 0.00 0.00 0.00 60 1016.2
20260508143205 17 28 4.8 9.7 0.00 0.00 0.00 60 1016.3
20260508141705 15 37 6.4 14.5 0.00 0.00 0.00 66 1016.3
20260508141206 15 346 4.8 14.5 0.00 0.00 0.00 64 1016.4
20260508140705 15 32 4.8 12.9 0.00 0.00 0.00 63 1016.4
20260508135705 15 123 6.4 11.3 0.00 0.00 0.00 61 1016.6
20260508135206 15 106 4.8 9.7 0.00 0.00 0.00 61 1016.6
20260508134705 15 72 4.8 16.1 0.00 0.00 0.00 62 1016.6
20260508134206 15 135 6.4 16.1 0.00 0.00 0.00 65 1016.6
20260508133705 15 20 4.8 16.1 0.00 0.00 0.00 62 1016.8
20260508133205 15 115 4.8 12.9 0.00 0.00 0.00 61 1016.7
20260508132705 16 58 6.4 14.5 0.00 0.00 0.00 62 1016.7
20260508132205 17 23 6.4 14.5 0.00 0.00 0.00 56 1016.7
20260508131705 18 18 8.0 14.5 0.00 0.00 0.00 58 1016.7
20260508131205 17 35 6.4 12.9 0.00 0.00 0.00 60 1016.7
20260508130206 15 6 4.8 11.3 0.00 0.00 0.00 62 1017.1
20260508125206 15 18 4.8 9.7 0.00 0.00 0.00 66 1017.0
20260508124706 15 49 6.4 9.7 0.00 0.00 0.00 62 1017.0
20260508124206 15 18 4.8 9.7 0.00 0.00 0.00 60 1017.0
20260508123705 15 16 3.2 8.0 0.00 0.00 0.00 60 1017.0
20260508123205 15 104 3.2 11.3 0.00 0.00 0.00 60 1017.1
20260508122705 15 139 3.2 14.5 0.00 0.00 0.00 60 1017.1
20260508122206 15 205 4.8 14.5 0.00 0.00 0.00 59 1017.0
20260508120705 17 42 4.8 11.3 0.00 0.00 0.00 58 1016.8
20260508120205 17 240 4.8 11.3 0.00 0.00 0.00 61 1017.0
20260508115706 17 222 4.8 12.9 0.00 0.00 0.00 63 1017.0
20260508115205 16 75 4.8 12.9 0.00 0.00 0.00 63 1017.0
20260508114705 16 60 4.8 12.9 0.00 0.00 0.00 62 1017.0
20260508114206 16 72 4.8 12.9 0.00 0.00 0.00 63 1017.1
20260508113705 16 243 6.4 14.5 0.00 0.00 0.00 66 1017.1
20260508113205 15 104 6.4 16.1 0.00 0.00 0.00 63 1017.2
20260508112705 16 141 8.0 16.1 0.00 0.00 0.00 62 1017.3
20260508112205 16 178 6.4 16.1 0.00 0.00 0.00 65 1017.3
20260508111705 15 115 6.4 16.1 0.00 0.00 0.00 66 1017.2
20260508111205 15 89 6.4 14.5 0.00 0.00 0.00 65 1017.2
20260508110706 15 187 6.4 14.5 0.00 0.00 0.00 66 1017.3
20260508110204 15 135 6.4 14.5 0.00 0.00 0.00 65 1017.3
20260508105206 15 141 6.4 16.1 0.00 0.00 0.00 66 1017.3
20260508104705 15 131 8.0 16.1 0.00 0.00 0.00 71 1017.3
20260508104205 15 98 8.0 12.9 0.00 0.00 0.00 65 1017.4
20260508103705 15 151 6.4 12.9 0.00 0.00 0.00 69 1017.5
20260508103205 15 156 4.8 11.3 0.00 0.00 0.00 68 1017.4
20260508102705 14 98 3.2 9.7 0.00 0.00 0.00 77 1017.4
20260508102206 13 314 3.2 9.7 0.00 0.00 0.00 75 1017.6
20260508101705 13 328 4.8 9.7 0.00 0.00 0.00 75 1017.6
20260508101205 12 32 3.2 9.7 0.00 0.00 0.00 75 1017.6
20260508100705 13 56 3.2 8.0 0.00 0.00 0.00 75 1017.5
20260508095706 12 15 3.2 9.7 0.00 0.00 0.00 75 1017.7
20260508095205 12 331 4.8 9.7 0.00 0.00 0.00 78 1017.8
20260508094705 12 15 4.8 9.7 0.00 0.00 0.00 79 1017.8
20260508093708 11 57 4.8 9.7 0.00 0.00 0.00 79 1017.8
20260508092706 12 178 4.8 11.3 0.00 0.00 0.00 80 1017.8
20260508092221 12 147 4.8 11.3 0.00 0.00 0.00 82 1017.8
20260508091709 11 63 4.8 9.7 0.00 0.03 0.00 85 1017.8
20260508091206 11 127 4.8 9.7 0.00 0.03 0.00 84 1017.8
20260508090705 11 49 4.8 9.7 0.00 0.03 0.00 85 1017.8
20260508090205 11 327 4.8 8.0 0.00 0.03 0.00 85 1017.8
20260508085704 10 40 4.8 8.0 0.00 0.03 0.00 87 1017.8
20260508084705 10 354 3.2 8.0 0.00 0.03 0.00 87 1017.8
20260508083205 10 75 3.2 8.0 0.00 0.03 0.00 89 1017.8
20260508082705 10 233 3.2 8.0 0.00 0.03 0.00 91 1017.7
20260508082206 10 68 3.2 8.0 0.00 0.03 0.00 92 1017.7
20260508081705 9 139 3.2 8.0 0.00 0.03 0.00 92 1017.8
20260508080705 9 351 3.2 8.0 0.00 0.03 0.00 94 1017.9
20260508075705 8 347 1.6 6.4 0.00 0.03 0.00 94 1017.8
20260508075206 8 53 1.6 4.8 0.00 0.03 0.00 94 1017.9
20260508074206 8 89 1.6 3.2 0.00 0.03 0.00 95 1017.9
20260508073705 8 222 1.6 4.8 0.00 0.03 0.00 95 1018.0
20260508073205 7 290 1.6 4.8 0.00 0.03 0.00 95 1018.0
20260508072206 7 160 1.6 6.4 0.00 0.03 0.00 95 1017.9
20260508071706 7 222 3.2 6.4 0.00 0.03 0.00 95 1018.0
20260508071206 7 250 3.2 6.4 0.00 0.03 0.00 95 1017.9
20260508070705 7 170 3.2 6.4 0.00 0.03 0.00 94 1017.8
20260508065725 6 212 1.6 3.2 0.00 0.03 0.00 94 1017.8
20260508065214 6 46 1.6 4.8 0.00 0.03 0.00 95 1017.8
20260508064705 6 245 3.2 4.8 0.00 0.03 0.00 94 1017.7
20260508064206 6 240 3.2 4.8 0.00 0.03 0.00 94 1017.7
20260508063205 6 258 1.6 4.8 0.00 0.03 0.00 94 1017.6
20260508062705 6 231 1.6 4.8 0.00 0.03 0.00 94 1017.5
20260508062204 6 178 3.2 4.8 0.00 0.03 0.00 93 1017.5
20260508061705 5 197 1.6 4.8 0.00 0.03 0.00 93 1017.5
20260508055705 5 178 1.6 3.2 0.00 0.05 0.00 93 1017.2
20260508055206 5 178 1.6 3.2 0.00 0.05 0.00 93 1017.2
20260508054206 5 89 0.0 3.2 0.00 0.05 0.00 93 1017.2
20260508053706 5 269 1.6 3.2 0.00 0.05 0.00 92 1017.2
20260508053205 5 344 1.6 3.2 0.00 0.05 0.00 93 1017.1
20260508052705 5 9 1.6 3.2 0.00 0.05 0.00 92 1017.2
20260508052205 5 1 1.6 3.2 0.00 0.05 0.00 92 1017.1
20260508051706 5 46 1.6 3.2 0.00 0.05 0.00 92 1017.1
20260508051230 5 56 1.6 3.2 0.00 0.05 0.00 92 1017.1
20260508050205 5 46 1.6 4.8 0.00 0.05 0.00 92 1017.1
20260508045705 5 89 1.6 3.2 0.00 0.05 0.00 92 1017.0
20260508045205 5 151 1.6 3.2 0.00 0.05 0.00 92 1016.8
20260508044705 5 127 1.6 3.2 0.00 0.05 0.00 92 1016.7
20260508044206 5 108 1.6 3.2 0.00 0.05 0.00 92 1016.7
20260508043705 5 178 1.6 3.2 0.00 0.05 0.00 92 1016.7
20260508043205 4 89 1.6 3.2 0.00 0.05 0.00 92 1016.6
20260508042706 4 46 1.6 3.2 0.00 0.05 0.00 92 1016.6
20260508042206 4 121 1.6 3.2 0.00 0.05 0.00 92 1016.6
20260508041705 4 101 1.6 3.2 0.00 0.05 0.00 92 1016.6
20260508040705 4 108 1.6 3.2 0.00 0.05 0.00 92 1016.6
20260508040205 4 135 0.0 3.2 0.00 0.08 0.00 91 1016.5
20260508035705 4 135 0.0 3.2 0.00 0.08 0.00 91 1016.5
20260508035206 4 178 0.0 3.2 0.00 0.08 0.00 91 1016.4
20260508034705 4 135 1.6 3.2 0.00 0.08 0.00 91 1016.4
20260508034206 4 127 1.6 3.2 0.00 0.10 0.00 91 1016.4
20260508033705 4 89 1.6 3.2 0.00 0.10 0.00 91 1016.3
20260508032705 4 20 1.6 3.2 0.00 0.10 0.00 91 1016.2
20260508032205 4 89 1.6 3.2 0.00 0.13 0.00 91 1016.2
20260508031705 4 104 0.0 3.2 0.00 0.13 0.00 91 1016.3
20260508031205 4 63 0.0 3.2 0.00 0.15 0.00 91 1016.2
20260508030705 4 46 1.6 1.6 0.00 0.15 0.00 91 1016.2
20260508030205 4 104 1.6 3.2 0.00 0.15 0.00 91 1016.2
20260508025206 4 63 1.6 3.2 0.00 0.18 0.00 91 1016.1
20260508024705 4 135 0.0 1.6 0.00 0.18 0.00 91 1016.2
20260508024209 4 117 0.0 1.6 0.00 0.18 0.00 91 1016.2
20260508023705 4 314 0.0 1.6 0.00 0.18 0.00 91 1016.3
20260508023205 4 1 0.0 3.2 0.00 0.18 0.00 91 1016.3
20260508022705 5 178 0.0 3.2 0.00 0.18 0.00 91 1016.3
20260508021705 5 151 0.0 3.2 0.00 0.18 0.00 91 1016.3
20260508020705 5 89 0.0 1.6 0.00 0.18 0.00 91 1016.3
20260508020206 5 331 0.0 1.6 0.00 0.18 0.00 91 1016.3
20260508015204 5 28 0.0 3.2 0.00 0.18 0.00 91 1016.3
20260508014705 5 46 1.6 3.2 0.00 0.18 0.00 91 1016.3
20260508014209 5 142 1.6 3.2 0.00 0.18 0.00 91 1016.3
20260508013705 5 151 1.6 3.2 0.00 0.18 0.00 91 1016.2
20260508013206 5 20 0.0 3.2 0.00 0.18 0.00 91 1016.2
20260508012705 5 151 0.0 4.8 0.00 0.18 0.00 91 1016.2
20260508012205 5 46 1.6 4.8 0.00 0.20 0.00 90 1016.1
20260508011705 5 32 3.2 4.8 0.00 0.20 0.00 90 1016.1
20260508011206 5 79 1.6 4.8 0.00 0.20 0.00 90 1016.2
20260508010705 5 53 1.6 4.8 0.00 0.20 0.00 90 1016.3
20260508010206 5 89 1.6 4.8 0.00 0.20 0.00 90 1016.3
20260508005706 5 63 3.2 4.8 0.00 0.20 0.00 90 1016.3
20260508004723 5 63 3.2 4.8 0.00 0.20 0.00 90 1016.5
20260508004206 5 56 1.6 3.2 0.00 0.20 0.00 90 1016.5
20260508002705 6 101 1.6 3.2 0.00 0.20 0.00 90 1016.5
20260508002205 6 63 1.6 3.2 0.00 0.20 0.00 90 1016.5
20260508001705 6 124 1.6 3.2 0.00 0.20 0.00 90 1016.5
20260508001205 6 331 1.6 3.2 0.00 0.23 0.00 90 1016.5
20260508000706 6 151 1.6 3.2 0.00 0.23 0.00 90 1016.5
20260508000205 6 46 0.0 3.2 0.00 0.23 0.23 90 1016.5
20260507235705 6 46 0.0 3.2 0.00 0.25 0.23 89 1016.6
20260507235205 6 269 0.0 1.6 0.00 0.25 0.23 90 1016.5
20260507234705 6 89 0.0 3.2 0.00 0.28 0.23 90 1016.5
20260507234206 6 1 0.0 4.8 0.00 0.28 0.23 89 1016.6
20260507233704 6 46 1.6 4.8 0.00 0.30 0.23 89 1016.5
20260507233205 6 15 3.2 3.2 0.00 0.30 0.23 89 1016.6
20260507232705 6 40 1.6 3.2 0.00 0.33 0.23 89 1016.6
20260507232206 6 89 0.0 3.2 0.00 0.33 0.23 89 1016.8
20260507231705 6 63 0.0 3.2 0.00 0.33 0.23 89 1016.8
20260507231206 7 117 1.6 4.8 0.00 0.33 0.23 89 1016.8
20260507230705 7 46 1.6 4.8 0.00 0.33 0.23 89 1016.7
20260507230205 7 28 1.6 4.8 0.00 0.33 0.23 89 1016.7
20260507225706 7 102 3.2 4.8 0.00 0.33 0.23 89 1016.7
20260507225205 7 46 3.2 6.4 0.00 0.36 0.23 89 1016.7
20260507224705 7 51 3.2 6.4 0.00 0.36 0.23 89 1016.7
20260507224208 7 50 1.6 4.8 0.00 0.38 0.23 89 1016.7
20260507223706 7 108 1.6 3.2 0.00 0.38 0.23 89 1016.7
20260507223206 7 331 1.6 3.2 0.00 0.41 0.23 89 1016.6
20260507222706 7 56 1.6 3.2 0.00 0.43 0.23 89 1016.5
20260507222206 7 68 1.6 3.2 0.00 0.43 0.23 89 1016.6
20260507221705 8 28 1.6 3.2 0.00 0.46 0.23 88 1016.6
20260507221205 8 35 1.6 3.2 0.00 0.48 0.23 88 1016.6
20260507220705 8 89 0.0 1.6 0.00 0.48 0.23 88 1016.5
20260507220205 8 46 0.0 3.2 0.00 0.51 0.23 88 1016.4
20260507215706 8 89 0.0 3.2 0.00 0.51 0.23 88 1016.4
20260507214705 8 89 1.6 3.2 0.00 0.56 0.23 88 1016.3
20260507214206 8 89 1.6 3.2 0.00 0.56 0.23 88 1016.2
20260507213705 8 63 3.2 3.2 0.00 0.56 0.23 88 1016.1
20260507212705 8 72 1.6 3.2 0.00 0.56 0.23 87 1016.1
20260507211705 8 72 0.0 1.6 0.00 0.58 0.23 87 1016.1
20260507211205 8 89 0.0 1.6 0.00 0.58 0.23 87 1016.0
20260507210206 9 20 0.0 3.2 0.00 0.58 0.23 87 1016.1
20260507205706 9 89 0.0 3.2 0.00 0.58 0.23 87 1016.2
20260507205205 9 63 1.6 3.2 0.00 0.58 0.23 86 1016.0
20260507204705 9 1 1.6 3.2 0.00 0.58 0.23 87 1016.0
20260507204206 9 28 0.0 1.6 0.00 0.58 0.23 86 1016.0
20260507203705 9 89 0.0 1.6 0.00 0.58 0.23 86 1015.9
20260507202205 9 46 0.0 3.2 0.00 0.58 0.23 86 1015.9
20260507201705 9 89 0.0 4.8 0.00 0.58 0.23 86 1015.7
20260507201205 9 72 1.6 4.8 0.00 0.61 0.23 86 1015.8
20260507200706 9 63 1.6 4.8 0.00 0.61 0.23 86 1015.7